Flag for Canada Weather past 2 weeks in Summerside, Pr.Edward I, Canada

Now
75 °F

Mild.


Feels Like: 75 °F
Forecast: 56 / 70 °F
Wind: 15 mph from Southwest

Location: Summerside Airport

Current Time: Sep 22, 2014 at 1:47:52 PM

Latest Report: Sep 22, 2014 at 1:00 PM


Visibility: N/A

Pressure: 29.41 "Hg

Humidity: 85%

Dew point: 70 °F

Location of SummersideLocation

Historic Weather in Summerside — Graph

°F

Summerside temperature yesterday

Maximum temperature yesterday: 74 °F (at 5:00 PM)
Minimum temperature yesterday: 57 °F (at 5:00 AM)
Average temperature yesterday: 65 °F

Past Weeks' High & Low Weather Summary

 TemperatureHumidityPressure
High75 °F (Sep 22, 1:00 PM)100% (Sep 22, 9:00 AM)30.47 "Hg (Sep 22, 9:00 AM)
Low35 °F (Sep 19, 11:00 PM)29% (Sep 8, 5:00 PM)29.31 "Hg (Sep 22, 7:00 AM)
Average57 °F72%30.06 "Hg
* Reported Sep 7 1:00 PM — Sep 22 1:00 PM, Summerside, Weather by CustomWeather, © 2014

Note: Actual official high and low records may vary slightly from our data, if they occured in-between our weather recording intervals... More about our weather records

Advertising

Summerside weather history for previous 24 hours

 ConditionsComfort  
Time TempWeatherWind HumidityBarometerVisibility
1:00 PM
Sep 22
75 °FMild.15 mph85%29.41 "HgN/A
12:00 PM71 °FMild.15 mph86%29.41 "HgN/A
11:00 AM70 °FMild.13 mph94%29.41 "HgN/A
10:00 AM69 °FMild.13 mph97%29.39 "HgN/A
9:00 AM68 °FMild.9 mph100%29.36 "HgN/A
8:00 AM66 °FMild.6 mph99%29.32 "HgN/A
7:00 AM68 °FMild.14 mph99%29.31 "HgN/A
6:00 AM68 °FMild.17 mph99%29.34 "HgN/A
5:00 AM68 °FMild.13 mph99%29.38 "HgN/A
4:00 AM68 °FMild.9 mph98%29.46 "HgN/A
3:00 AM68 °FMild.10 mph98%29.54 "HgN/A
2:00 AM68 °FMild.12 mph97%29.62 "HgN/A
1:00 AM68 °FMild.15 mph96%29.67 "HgN/A
12:00 AM68 °FMild.14 mph94%29.73 "HgN/A
11:00 PM
Sep 21
68 °FMild.14 mph94%29.77 "HgN/A
10:00 PM68 °FMild.18 mph84%29.81 "HgN/A
9:00 PM69 °FMild.15 mph82%29.85 "HgN/A
8:00 PM69 °FMild.17 mph76%29.85 "HgN/A
7:00 PM72 °FMild.16 mph66%29.86 "HgN/A
6:00 PM73 °FMild.14 mph57%29.86 "HgN/A
5:00 PM74 °FMild.13 mph51%29.87 "HgN/A
4:00 PM73 °FMild.15 mph51%29.89 "HgN/A
3:00 PM71 °FMild.22 mph53%29.90 "HgN/A
2:00 PM70 °FMild.18 mph61%29.93 "HgN/A
1:00 PM71 °FMild.23 mph56%29.95 "HgN/A
Weather by CustomWeather, © 2014

See weather overviewHow to use our weather pages